Cloverdale, Indiana, United States (46120)
Lat: 39.51N, Lon: 86.79W
Wx Zone: INZ045
Local Info
Past Weather Observations for Thursday, August 27, 2015

NOTE: This archive is for the closest National Weather Service station to Cloverdale. Information may differ from the station used for current weather conditions.

Click here for Long-term Archive

Time Weather Temperature Dewpoint Humidity Pressure Winds Precip Visibility
23:53
Clear
57°F / 14°C 55°F / 13°C 94% 30.12 in
(1020 mb)
Calm - 10SM
22:53
Clear
61°F / 16°C 57°F / 14°C 88% 30.12 in
(1020 mb)
Calm - 10SM
21:53
Clear
61°F / 16°C 57°F / 14°C 88% 30.12 in
(1020 mb)
Calm - 10SM
20:53
Clear
63°F / 17°C 61°F / 16°C 94% 30.12 in
(1020 mb)
Calm - 10SM
19:53
Clear
64°F / 18°C 61°F / 16°C 88% 30.12 in
(1020 mb)
Calm - 10SM
18:53
Clear
70°F / 21°C 63°F / 17°C 78% 30.12 in
(1020 mb)
Calm - 10SM
17:53
Clear
77°F / 25°C 57°F / 14°C 51% 30.12 in
(1020 mb)
SSE 4.6 mph
(SSE 7 kph)
- 10SM
16:53
Partly Cloudy
79°F / 26°C 57°F / 14°C 48% 30.12 in
(1020 mb)
E 5.8 mph
(E 9 kph)
- 10SM
15:53
Partly Cloudy
79°F / 26°C 57°F / 14°C 48% 30.12 in
(1020 mb)
NW 3.5 mph
(NW 6 kph)
- 10SM
14:53
Clear
79°F / 26°C 55°F / 13°C 45% 30.15 in
(1021 mb)
ESE 6.9 mph
(ESE 11 kph)
- 10SM
13:53
Mostly Cloudy
77°F / 25°C 55°F / 13°C 47% 30.15 in
(1021 mb)
SE 3.5 mph
(SE 6 kph)
- 10SM
12:53
Partly Cloudy
75°F / 24°C 57°F / 14°C 54% 30.15 in
(1021 mb)
E 8.1 mph
(E 13 kph)
- 10SM
11:53
Mostly Cloudy
75°F / 24°C 57°F / 14°C 54% 30.15 in
(1021 mb)
S 5.8 mph
(S 9 kph)
- 10SM
10:53
Clear
73°F / 23°C 61°F / 16°C 65% 30.18 in
(1022 mb)
Variable 4.6 mph
(Variable 7 kph)
- 10SM
09:53
Clear
70°F / 21°C 61°F / 16°C 73% 30.18 in
(1022 mb)
E 3.5 mph
(E 6 kph)
- 10SM
08:53
Clear
66°F / 19°C 59°F / 15°C 78% 30.18 in
(1022 mb)
SE 5.8 mph
(SE 9 kph)
- 10SM
07:53
Clear
63°F / 17°C 59°F / 15°C 88% 30.18 in
(1022 mb)
E 3.5 mph
(E 6 kph)
- 10SM
06:53
Clear
Fog And Mist
55°F / 13°C 54°F / 12°C 94% 30.15 in
(1021 mb)
Calm - 4SM
06:50
Clear
Fog And Mist
55°F / 13°C 54°F / 12°C 94% 30.15 in
(1021 mb)
Calm - 4SM
06:33
Partly Cloudy
Fog And Mist
54°F / 12°C 54°F / 12°C 100% 30.15 in
(1021 mb)
Calm - 2SM
06:24
Partly Cloudy
Fog And Mist
54°F / 12°C 54°F / 12°C 100% 30.15 in
(1021 mb)
Calm - 1 1/4SM
06:14
Obscured
Fog
54°F / 12°C 52°F / 11°C 94% 30.15 in
(1021 mb)
Calm - 1/4SM
06:00
Obscured
Fog
54°F / 12°C 52°F / 11°C 94% 30.15 in
(1021 mb)
S 3.5 mph
(S 6 kph)
- 1/2SM
05:53
Obscured
Fog And Mist
54°F / 12°C 54°F / 12°C 100% 30.15 in
(1021 mb)
Calm - 1SM
05:46
Clear
Fog And Mist
54°F / 12°C 52°F / 11°C 94% 30.15 in
(1021 mb)
Calm - 4SM
05:30
Clear
Fog And Mist
54°F / 12°C 54°F / 12°C 100% 30.15 in
(1021 mb)
Calm - 1 1/4SM
05:26
Obscured
Fog
54°F / 12°C 54°F / 12°C 100% 30.15 in
(1021 mb)
Calm - 1/2SM
05:19
Clear
Fog And Mist
54°F / 12°C 54°F / 12°C 100% 30.15 in
(1021 mb)
Calm - 3/4SM
05:14
Clear
Fog And Mist
54°F / 12°C 54°F / 12°C 100% 30.15 in
(1021 mb)
Calm - 2 1/2SM
04:53
Clear
Fog And Mist
55°F / 13°C 54°F / 12°C 94% 30.15 in
(1021 mb)
Calm - 1 1/2SM
04:50
Clear
Fog And Mist
55°F / 13°C 54°F / 12°C 94% 30.15 in
(1021 mb)
Calm - 1 3/4SM
04:42
Clear
Fog And Mist
54°F / 12°C 54°F / 12°C 100% 30.15 in
(1021 mb)
Calm - 4SM
04:32
Clear
Fog And Mist
55°F / 13°C 54°F / 12°C 94% 30.15 in
(1021 mb)
Calm - 2SM
03:53
Clear
Fog And Mist
55°F / 13°C 54°F / 12°C 94% 30.15 in
(1021 mb)
Calm - 5SM
02:53
Clear
61°F / 16°C 57°F / 14°C 88% 30.15 in
(1021 mb)
NE 3.5 mph
(NE 6 kph)
- 10SM
01:53
Clear
61°F / 16°C 57°F / 14°C 88% 30.15 in
(1021 mb)
NE 4.6 mph
(NE 7 kph)
- 10SM
00:53
Clear
61°F / 16°C 57°F / 14°C 88% 30.15 in
(1021 mb)
N 3.5 mph
(N 6 kph)
- 10SM
Time Weather Temperature Dewpoint Humidity Pressure Winds Precip Visibility


Weather for websites

WeatherForYou.com, LLC is not responsible for any damages or problems caused by this service. Current weather conditions are obtained from the closest station including government and personal stations which may have varying degrees of accuracy. Weather forecasts are derived from the NOAA NDFD. Like all things, this site belongs to Jesus Christ... He just trusts us to maintain it. If you have any questions or comments email webmaster@weatherforyou.com

Copyright © 2015, WeatherForYou.com LLC. All rights reserved.